Location: Boursonne
(49.2024°N, 3.0468°E)
Time: 08:45:27
(UTC+00:00)

Gbstr 26 Del rocket - Pass Details

Date: 03 March 2021
Orbit: 492 x 1264 km, 51.8° (Epoch: 12 April)

Event Time Altitude Azimuth Distance (km) Brightness Sun altitude
Rises 19:53:25 0° 281° (W) 2,886 7.9 -23.3°
Reaches altitude 10° 19:55:32 10° 284° (WNW) 2,070 6.8 -23.6°
Maximum altitude 20:00:17 69° 8° (N) 815 3.6 -24.3°
Enters shadow 20:01:08 58° 59° (ENE) 904 3.6 -24.5°
